Theta_e
324 322 324 325 327 326 326 325 328 328 326 327 326 323 322 321 323 323 322 323 325 323 323 322 323 323 324 324 325 326 325 327 326 323 321 322 321 319 323 321 322 325 325 324 322 319 316 313 318 325 328 327 327 327 327 325 329 333 332 334 335 334 333
323 323 322 322 323 326 326 329 326 324 326 324 320 321 320 320 321 321 320 318 317 318 318 320 322 324 325 324 324 324 323 323 323 324 323 321 322 322 322 322 322 322 324 324 324 321 317 313 314 316 319 327 328 327 326 327 326 329 331 333 333 333 332
322 321 321 323 324 327 325 323 323 324 324 325 325 322 321 320 321 321 319 321 319 316 315 316 320 321 322 322 323 323 323 321 321 320 318 318 318 316 319 325 321 320 321 321 321 320 319 317 313 312 316 316 314 323 327 324 323 324 324 323 325 330 329
321 322 321 321 322 324 321 322 323 324 324 323 324 325 323 321 320 322 321 319 320 321 318 318 318 315 319 321 319 318 318 318 318 317 317 316 317 315 314 313 312 314 314 313 313 314 313 312 310 310 310 308 307 307 315 324 323 323 322 323 323 323 324
323 322 320 320 321 321 322 322 322 322 321 323 324 323 322 323 323 322 323 322 323 323 322 321 319 319 320 320 320 320 318 318 318 316 314 313 313 314 313 313 314 316 313 311 313 314 313 311 311 307 306 307 308 308 311 311 313 314 320 321 322 321 322
324 323 322 322 322 322 321 322 320 319 320 320 322 321 323 323 324 323 322 321 320 321 319 316 317 319 319 318 317 317 317 316 316 315 314 313 313 312 312 313 312 313 312 315 315 314 315 314 314 309 309 309 306 307 308 309 309 311 312 313 315 317 317
324 325 322 323 323 323 323 323 321 320 319 321 321 321 323 324 325 325 323 321 322 322 323 323 322 320 319 316 318 317 317 318 317 316 315 315 314 313 313 311 312 311 312 316 313 315 313 312 310 309 308 309 308 306 308 308 309 308 310 312 314 316 318
324 324 324 324 324 325 324 323 324 322 322 321 321 322 322 324 324 322 322 321 322 321 320 320 322 321 320 316 317 318 317 317 316 316 315 314 314 312 312 313 317 311 312 310 312 312 310 311 309 309 308 305 305 307 306 308 308 308 308 311 314 315 317
323 324 325 324 324 328 325 323 326 326 324 323 323 321 322 324 322 322 320 322 321 321 321 320 320 319 320 317 317 318 316 319 318 317 316 315 315 314 313 315 312 311 313 310 313 312 312 313 312 311 309 307 303 301 304 304 306 307 312 310 312 314 314
323 323 323 326 325 328 328 324 327 327 327 325 324 322 323 324 323 321 320 320 321 321 321 321 320 320 321 318 318 318 317 318 317 316 317 315 315 316 314 313 316 313 310 315 315 313 313 313 314 312 312 309 309 304 302 301 304 305 308 311 309 312 315
325 326 326 328 327 326 329 324 327 325 328 326 324 323 323 324 323 323 322 321 322 321 321 321 318 319 320 317 317 318 318 318 316 316 316 315 314 314 314 313 310 313 311 314 313 314 316 316 314 314 311 311 310 306 304 302 302 307 307 310 311 310 313
328 328 327 329 327 326 327 326 325 323 327 326 324 323 322 323 323 322 322 320 321 320 320 320 319 317 318 317 318 317 318 317 316 316 316 315 315 315 312 312 312 315 313 313 314 316 314 314 315 309 310 311 311 310 308 306 301 307 310 308 310 312 311
328 330 330 331 329 324 326 326 327 323 324 323 325 324 322 322 322 321 322 320 320 319 318 319 319 317 319 316 317 315 315 317 315 314 313 314 312 315 311 312 311 311 311 309 309 314 314 312 311 310 310 310 309 309 309 306 303 303 309 309 309 309 310
331 329 332 330 328 331 329 326 326 326 324 322 324 323 322 322 321 321 321 320 319 318 317 318 317 318 318 316 316 316 314 314 314 312 313 312 314 313 311 311 310 312 311 309 309 309 309 309 310 312 310 310 309 309 307 306 303 302 305 309 308 307 308
331 332 330 328 327 329 331 329 329 330 328 324 324 322 321 322 321 321 320 320 320 318 317 317 316 317 316 316 315 318 313 312 312 312 313 310 312 314 312 310 310 310 311 309 309 305 305 305 304 303 307 310 307 311 311 307 303 302 301 305 306 308 307
330 331 331 330 328 326 327 328 330 328 329 330 327 323 321 322 322 321 320 320 319 318 317 317 317 317 316 315 314 315 315 312 312 313 311 311 310 310 311 311 310 310 312 309 310 309 308 307 307 305 305 305 305 306 306 305 304 303 303 304 307 306 306
331 330 330 331 330 328 329 329 329 329 328 327 328 330 324 320 320 320 320 320 319 319 318 318 317 316 316 315 314 313 313 313 312 313 311 310 309 310 309 310 310 311 309 309 308 309 309 308 308 307 305 304 304 304 307 309 309 305 305 304 306 305 306
330 331 330 330 328 324 323 323 325 324 326 325 328 327 328 327 322 319 321 320 319 319 319 318 316 316 316 316 315 314 313 312 312 312 312 311 313 311 309 310 310 309 308 308 308 308 308 309 305 305 304 304 304 305 306 305 304 303 301 300 301 303 305
327 326 326 325 322 322 321 321 319 322 324 323 322 324 325 325 323 321 320 320 319 319 319 318 317 316 315 316 315 314 313 313 313 312 312 313 311 311 310 309 309 309 308 307 308 308 307 306 306 305 304 304 303 303 304 304 304 304 303 301 301 301 302
325 325 324 323 323 323 323 323 323 323 322 323 323 321 322 322 322 322 323 322 319 320 320 319 318 317 316 315 315 314 314 313 314 313 313 312 311 310 309 309 309 309 307 307 306 306 306 307 308 305 305 303 301 301 300 300 301 300 301 300 301 301 301
325 326 325 322 320 321 321 320 320 321 321 321 322 321 320 321 321 321 320 318 320 322 321 320 320 318 316 315 315 314 314 314 312 312 313 311 311 309 309 309 308 308 307 307 305 303 301 300 300 299 299 299 299 299 299 299 299 299 298 299 299 298 300
323 322 324 325 323 322 322 322 321 320 320 320 319 319 318 319 319 321 322 322 321 321 321 320 319 318 316 315 316 314 314 313 312 311 310 310 309 308 307 307 307 306 306 300 300 300 300 299 299 296 298 299 298 297 297 296 296 295 296 296 296 298 297
319 319 319 320 320 323 323 322 322 322 324 324 323 323 322 321 320 321 321 320 320 321 321 319 315 308 309 316 315 316 315 314 313 311 309 307 307 306 306 306 308 306 303 301 296 293 293 294 297 300 297 296 296 296 296 295 293 293 294 293 293 294 294
318 318 320 322 320 321 319 321 322 321 323 323 324 324 323 323 322 321 321 320 319 321 320 318 307 303 301 305 314 314 313 312 312 311 308 307 305 306 306 305 305 302 300 299 297 292 293 292 292 293 294 296 298 297 295 294 293 294 293 293 294 293 293
316 314 317 317 319 320 320 320 320 321 322 323 324 325 324 322 322 322 322 321 320 321 319 310 304 301 299 301 307 314 313 310 309 308 306 306 305 304 303 304 305 305 302 301 300 298 295 293 291 292 291 292 292 292 294 295 294 293 293 293 293 293 293
314 316 316 316 316 317 317 319 319 319 319 322 323 321 322 322 321 321 321 321 317 310 308 297 298 297 297 299 301 306 309 309 308 307 306 306 306 305 304 305 304 306 304 306 304 302 300 296 293 292 292 293 292 291 290 290 292 295 295 294 293 293 294
314 315 315 315 315 315 315 315 319 320 320 319 320 320 319 319 319 319 320 318 311 306 304 295 295 295 296 296 298 302 306 306 306 306 306 305 305 303 305 304 303 304 304 303 300 301 300 300 299 296 294 294 294 295 293 291 291 291 292 293 293 293 295
314 314 314 314 314 313 314 314 316 319 319 319 318 318 317 317 317 318 318 313 306 305 302 293 293 294 294 294 296 300 306 308 305 304 306 308 307 306 305 306 304 302 302 302 304 303 303 301 300 300 298 297 296 297 296 296 297 296 295 294 294 294 296
314 314 314 314 314 313 314 314 315 318 318 318 317 317 318 317 317 317 317 309 306 303 298 292 292 293 292 292 294 301 305 306 303 306 306 306 305 306 304 303 301 301 301 301 297 294 297 300 298 297 296 295 295 295 296 297 296 296 297 298 298 298 298
314 313 313 313 312 313 313 314 315 317 317 317 316 316 315 316 316 315 311 308 305 301 296 293 291 291 290 292 296 302 305 302 302 303 304 304 302 302 303 302 302 301 302 301 294 291 292 294 297 295 295 294 295 295 295 298 296 294 293 293 292 292 292
312 313 312 311 311 312 312 313 313 316 315 315 314 314 315 315 316 314 309 307 304 300 297 292 290 290 290 292 296 302 302 303 303 302 301 303 303 303 304 307 304 301 302 298 289 290 289 294 296 295 295 294 293 293 294 296 298 298 295 294 293 293 292
313 313 312 312 314 312 313 313 312 315 316 315 315 314 313 313 313 312 308 305 302 300 296 292 290 289 289 290 296 300 300 299 300 300 301 301 302 302 301 303 301 298 295 290 289 289 289 293 294 294 294 293 292 292 293 294 294 293 293 293 293 294 293
311 309 309 314 313 313 313 312 311 311 314 314 313 311 311 311 311 308 304 302 302 300 295 294 292 289 290 289 290 298 299 298 297 297 299 300 303 303 303 298 291 289 289 288 288 288 288 289 291 291 291 290 290 290 293 292 292 291 290 291 291 292 292
311 311 312 313 314 313 313 312 312 311 311 313 312 312 312 310 308 306 304 303 301 299 297 294 292 289 290 290 289 291 295 296 297 299 296 296 297 298 297 295 292 289 289 289 288 288 289 289 289 290 290 289 290 292 290 289 290 291 290 290 290 290 290
310 314 314 314 313 312 312 311 310 311 309 310 312 310 310 308 306 305 303 301 299 297 297 295 292 290 290 290 289 289 294 296 293 294 294 293 294 296 296 297 292 290 288 289 289 289 289 289 288 290 290 289 289 289 289 290 289 289 289 289 289 289 289
309 311 311 310 309 310 311 310 310 309 311 311 310 307 306 306 305 302 299 298 297 296 295 294 292 291 289 290 289 290 288 291 290 295 295 294 295 296 297 297 292 290 289 288 288 288 289 288 289 289 289 288 288 288 288 288 289 289 289 289 289 288 289
306 308 308 308 307 308 309 309 310 310 311 309 308 305 304 304 302 300 298 297 296 295 294 293 292 291 291 289 289 290 289 287 288 295 295 294 294 295 296 296 293 289 290 290 289 289 289 289 289 289 288 288 288 288 288 289 289 289 289 288 288 288 289
Wind_Speed
6 6 6 5 5 5 5 4 3 3 3 4 4 5 5 5 4 3 4 4 3 3 4 5 5 7 5 3 6 6 6 4 4 6 5 6 2 1 1 2 4 2 1 1 1 1 0 2 1 2 2 3 3 3 3 3 3 2 3 3 3 2 3
7 6 5 5 5 4 4 3 3 4 5 5 5 4 4 4 4 4 5 6 6 4 5 5 4 4 4 5 4 4 4 5 5 4 3 4 4 3 4 2 4 4 3 2 2 1 1 1 3 1 2 2 3 4 3 3 4 4 4 4 4 3 3
7 6 5 5 4 3 4 5 5 5 4 4 3 3 4 4 3 4 4 3 4 5 5 5 4 4 3 4 4 4 4 5 4 5 5 4 5 4 2 1 1 3 2 1 2 3 3 4 3 3 1 1 2 2 3 4 5 4 5 5 5 6 5
8 6 7 5 5 4 4 5 5 4 4 4 3 3 4 4 4 3 4 4 4 4 5 4 4 5 3 3 4 4 4 4 4 5 5 5 5 6 5 5 4 4 3 2 3 3 2 2 3 3 4 4 3 4 2 3 3 3 4 5 5 4 4
8 7 8 7 6 5 5 5 5 5 5 4 3 3 3 3 3 3 3 3 3 3 3 3 3 3 3 3 3 4 4 4 5 5 4 5 5 4 4 5 5 5 6 4 4 3 4 3 2 3 4 3 3 3 5 5 4 4 5 6 5 5 6
8 8 8 6 5 6 5 5 6 6 5 4 3 3 3 3 2 3 3 3 3 3 4 4 4 4 4 4 4 4 4 4 4 4 4 4 4 3 2 3 5 5 4 2 3 2 1 0 2 2 3 4 3 4 3 4 3 3 6 7 6 7 7
7 7 7 6 5 6 5 6 6 6 6 5 5 4 3 3 2 2 3 3 3 3 2 2 1 3 4 4 3 4 3 3 4 4 4 4 3 3 2 3 3 4 3 2 2 2 3 3 3 2 3 3 3 5 4 3 3 3 2 4 5 7 6
6 6 7 6 6 5 5 5 4 7 6 6 6 6 4 4 4 4 3 3 3 3 3 2 2 2 4 4 3 4 3 3 4 3 3 3 3 3 2 0 1 3 2 3 3 5 4 4 4 4 3 4 3 3 4 5 6 4 4 5 5 7 4
6 6 5 7 6 4 6 6 3 5 6 6 6 6 4 4 5 4 3 3 3 3 2 3 2 2 2 4 3 3 3 2 3 4 3 3 2 3 1 0 2 2 2 1 1 3 2 2 3 4 4 3 4 5 4 4 4 5 9 8 7 4 6
8 7 5 7 8 5 5 7 3 3 5 6 6 6 4 4 4 4 3 4 3 3 3 2 3 2 2 3 3 3 3 2 2 3 3 3 1 2 1 0 0 3 3 0 2 3 2 2 2 2 2 3 3 3 3 4 4 5 7 8 7 5 9
8 7 6 6 7 5 5 6 4 4 4 6 7 6 4 5 4 4 3 4 3 3 3 2 2 3 2 4 3 3 3 3 3 2 1 2 2 2 1 2 3 2 2 1 2 0 1 1 2 1 2 2 2 2 2 3 4 3 5 6 6 8 8
5 5 5 5 7 6 5 6 6 6 4 5 8 7 5 5 5 4 4 4 3 3 3 3 3 3 3 3 3 2 3 3 3 2 1 2 2 2 1 0 1 0 2 0 0 0 2 1 1 3 2 2 2 2 2 2 3 1 3 5 5 7 8
4 4 4 4 4 8 6 5 5 7 6 6 7 8 6 6 6 5 5 5 5 4 3 3 3 3 3 4 3 4 3 3 3 3 3 1 2 1 1 0 0 2 3 2 2 3 2 2 1 2 3 3 2 1 2 2 3 6 3 3 5 7 9
4 3 3 4 4 3 3 5 4 5 6 6 7 8 7 6 7 7 6 6 6 5 5 4 4 3 3 3 3 3 4 3 3 4 3 3 1 1 2 2 3 1 1 1 3 4 3 2 3 4 4 2 2 2 2 2 3 5 3 3 5 6 7
5 3 3 4 5 3 2 3 2 2 3 7 6 9 8 6 6 7 6 7 7 7 7 6 5 4 4 4 4 3 5 4 3 4 4 3 2 2 0 2 1 3 1 1 2 3 3 3 2 2 2 3 1 0 0 2 3 3 6 3 5 5 6
4 3 3 3 4 5 4 3 2 3 2 2 2 6 8 7 7 7 7 6 7 7 7 6 5 4 4 5 5 3 4 4 4 3 4 3 3 3 2 2 1 2 2 1 1 2 3 3 3 4 4 4 3 3 3 3 3 4 6 5 3 5 4
2 2 2 1 3 3 2 0 1 2 2 2 1 0 4 8 7 7 7 7 7 6 7 6 6 6 6 6 5 5 4 4 4 3 4 3 4 5 4 3 3 2 3 2 2 2 2 2 2 1 3 4 4 4 3 2 3 3 3 5 3 3 4
1 1 1 2 5 7 9 9 9 9 7 3 1 1 1 1 3 7 7 7 7 7 7 7 7 7 6 5 5 5 5 4 4 3 4 4 4 3 4 3 2 3 3 2 1 2 2 3 4 3 3 4 3 4 5 5 6 5 5 6 6 4 4
2 3 4 5 5 4 4 4 4 8 6 6 9 9 3 3 3 3 5 6 6 7 8 7 7 7 7 5 5 5 5 4 4 3 3 3 3 1 0 1 2 1 1 2 2 0 2 2 3 3 3 4 4 5 4 4 4 4 4 5 5 6 4
2 1 2 3 5 6 5 6 5 2 6 6 5 7 8 6 4 4 1 3 7 7 5 6 7 6 7 6 6 6 5 4 4 3 3 3 2 3 2 2 1 1 1 0 0 1 0 1 1 2 3 3 4 4 5 5 5 6 5 5 5 5 6
1 2 2 3 4 5 6 6 6 6 6 6 5 6 6 6 5 5 5 5 4 3 3 3 3 4 7 7 6 5 5 4 4 4 3 3 3 3 3 2 1 1 2 1 2 5 4 3 3 3 3 3 3 4 4 5 5 5 5 5 5 5 4
1 1 1 2 2 5 5 5 7 7 6 6 5 7 5 7 9 7 6 6 7 6 4 3 5 6 7 8 6 6 6 6 5 5 4 3 3 3 3 3 2 1 5 7 7 6 5 3 1 1 2 3 3 3 3 4 4 5 6 6 7 6 6
5 5 5 3 2 1 2 3 3 3 7 9 9 11 14 14 12 9 6 4 5 3 5 5 7 10 12 7 6 5 4 4 4 3 5 4 3 3 3 3 3 10 9 8 7 6 5 5 3 2 2 1 1 1 1 2 3 3 4 6 6 6 7
1 1 2 1 3 4 5 5 7 7 8 9 9 9 7 6 6 6 7 7 8 7 6 5 9 13 14 12 7 6 5 3 3 2 3 2 3 2 2 3 3 6 7 5 3 6 5 6 6 7 7 7 5 2 1 2 3 3 4 5 5 6 6
2 2 1 0 1 2 1 1 1 2 3 3 3 1 2 4 4 4 6 7 7 6 6 8 13 13 12 13 10 7 5 4 4 3 4 3 3 3 4 3 3 4 3 4 3 3 6 9 10 10 10 9 9 9 7 5 4 4 4 5 6 6 6
2 2 1 1 2 2 1 2 2 2 3 2 2 1 1 1 1 2 4 4 1 3 2 6 10 11 11 12 13 10 5 5 4 2 3 1 2 2 3 4 3 4 4 10 6 3 5 7 11 13 11 9 8 9 10 11 11 9 6 7 7 8 6
1 0 1 1 1 0 2 3 2 1 1 2 1 2 1 1 1 3 2 3 4 2 3 5 13 14 14 14 13 9 6 5 4 3 2 3 3 4 2 0 0 1 2 4 5 4 4 5 6 7 6 5 6 9 12 14 15 15 13 10 9 10 8
1 1 1 1 1 2 2 3 3 2 1 2 3 3 3 3 3 3 3 5 5 3 3 4 9 12 13 13 13 8 5 2 5 3 3 2 1 0 1 1 2 3 2 1 1 1 1 1 1 0 1 2 3 3 3 4 4 6 8 8 10 11 10
1 1 1 0 1 2 2 3 3 2 3 2 3 2 2 5 4 4 2 7 5 5 4 4 7 11 12 13 11 4 3 2 4 3 2 2 2 1 2 3 5 4 3 4 4 5 4 0 1 1 3 4 4 4 4 5 9 10 9 7 6 7 7
1 1 1 1 2 2 1 2 3 2 2 2 3 3 3 2 3 3 7 5 6 5 5 3 6 10 10 11 7 3 3 4 3 3 1 2 5 7 7 4 3 4 4 3 8 9 7 4 2 3 4 5 5 5 5 5 8 12 12 11 12 13 14
2 1 1 2 1 1 1 2 3 2 3 2 3 3 3 2 1 5 8 6 6 7 5 4 7 9 8 7 5 3 2 1 2 2 4 4 3 3 4 8 6 5 4 2 6 8 6 3 2 3 4 5 6 6 6 4 5 6 10 11 10 10 8
1 1 2 2 1 1 1 2 3 3 3 2 3 3 2 2 5 6 6 6 9 9 7 4 7 9 7 6 4 3 4 3 3 3 3 5 6 6 6 8 5 9 9 9 12 10 10 6 3 4 5 5 6 7 6 6 5 6 6 7 8 8 9
3 3 3 2 1 2 1 2 3 4 3 2 3 4 5 2 8 7 7 7 5 6 7 4 4 7 7 5 6 4 4 4 4 5 6 4 2 1 1 7 9 10 13 12 9 8 6 6 2 3 3 4 6 9 5 5 7 8 10 10 11 10 11
3 3 3 2 2 2 2 3 3 3 4 3 3 2 5 8 8 7 6 6 6 5 7 8 5 7 7 5 5 5 3 3 4 4 5 6 5 4 3 6 5 6 9 8 6 5 4 4 2 2 3 5 6 7 8 8 9 10 9 9 9 8 8
3 2 2 2 2 2 3 3 4 4 4 4 1 6 3 7 6 6 6 6 6 6 6 10 7 6 6 6 6 4 1 3 4 4 5 4 5 4 4 6 5 7 7 4 3 3 4 5 7 3 5 9 11 12 9 6 7 6 7 7 7 7 6
3 2 3 3 4 3 3 4 4 5 3 3 5 6 4 6 6 6 7 5 4 6 6 7 9 6 6 6 6 6 3 0 6 4 3 4 4 4 5 4 7 5 3 4 5 5 7 9 7 6 10 10 9 11 9 6 7 7 7 7 7 7 6
5 4 4 4 5 4 4 4 4 1 4 3 5 6 4 5 6 7 6 5 5 5 5 5 6 8 6 6 6 4 2 3 2 1 2 2 3 5 4 3 3 4 4 8 9 10 9 9 7 10 12 13 13 11 6 7 6 7 7 6 6 7 7
Wind_Direction
105 111 113 112 101 98 116 117 117 106 93 70 64 64 73 58 48 35 23 18 75 102 73 47 56 36 48 50 37 43 58 47 90 125 170 176 160 149 204 163 250 267 271 24 39 16 328 322 303 220 246 242 229 243 265 301 309 260 266 249 232 206 189
116 117 110 114 122 133 138 122 90 83 61 69 77 73 69 74 60 50 37 35 29 52 81 82 64 61 56 49 45 41 62 64 48 50 85 123 136 146 175 195 199 196 199 192 160 158 239 287 286 280 259 216 227 240 222 225 251 253 254 255 244 230 208
133 135 131 127 123 146 107 89 94 87 94 101 91 82 82 80 89 72 55 51 65 75 88 86 83 84 70 54 47 48 50 68 53 54 53 44 58 32 23 45 127 136 138 146 215 197 221 208 244 302 267 264 285 226 205 231 239 248 258 258 246 235 225
147 143 132 131 137 121 125 136 128 126 113 93 99 87 87 75 70 68 78 71 43 45 60 73 100 109 108 116 94 72 60 60 57 57 47 34 42 37 21 21 44 49 48 36 45 4 4 3 3 343 345 324 306 305 253 218 225 257 260 250 259 256 231
149 140 140 147 152 145 149 147 126 120 114 125 98 100 101 108 88 99 98 75 71 72 77 103 113 90 87 86 81 78 68 55 70 69 59 52 40 43 22 12 11 42 46 37 4 1 30 16 1 316 287 317 333 341 341 329 287 253 235 243 242 243 243
143 139 149 145 160 149 156 144 142 135 135 135 140 117 118 115 128 107 93 93 74 57 69 65 50 71 85 90 86 79 83 94 86 87 79 69 73 64 31 29 18 42 57 40 13 342 317 205 260 298 333 354 327 312 301 302 287 249 243 242 230 233 243
145 142 147 152 159 150 168 149 155 146 149 150 142 135 149 137 140 115 87 98 103 95 94 69 109 133 132 110 106 104 99 91 92 90 96 102 94 79 54 51 25 57 11 28 5 326 352 4 7 11 354 329 322 302 297 286 280 310 290 274 240 232 214
145 147 149 152 161 160 161 150 164 148 152 151 151 139 161 158 122 108 110 105 113 108 99 103 64 39 64 81 74 78 75 74 81 79 81 90 90 93 74 69 134 84 30 35 339 35 14 25 4 359 348 335 327 316 329 336 330 310 317 310 357 9 353
150 151 155 151 163 169 151 150 170 149 148 147 143 143 168 144 133 128 134 132 121 124 127 142 158 93 98 99 109 115 108 123 137 137 126 103 99 90 85 277 98 129 108 51 336 64 54 28 3 357 342 340 343 335 339 320 330 329 348 342 343 3 21
163 158 172 156 162 168 142 147 156 145 138 144 137 142 164 136 139 146 155 140 153 158 163 174 115 120 142 139 126 135 138 143 93 72 90 103 86 86 87 343 304 123 78 342 38 37 33 19 13 326 317 324 351 328 326 334 324 344 330 335 331 359 19
161 159 169 154 150 152 136 148 141 156 146 141 136 142 161 143 147 162 151 149 159 161 173 168 144 157 168 121 156 155 136 122 112 149 135 109 95 102 51 41 351 61 90 13 76 22 343 22 294 267 273 305 344 356 338 323 310 304 311 330 343 339 347
156 152 157 147 139 143 151 152 153 164 146 137 138 144 160 156 158 171 158 162 166 175 175 179 165 170 184 131 170 138 121 152 159 157 129 118 150 127 130 172 318 25 99 112 180 195 189 207 288 326 347 348 327 343 335 318 309 293 4 318 324 334 335
154 144 124 88 127 150 158 158 165 160 158 148 146 151 167 165 168 177 171 164 172 173 185 177 183 185 194 146 179 148 170 199 160 157 134 160 176 150 102 276 21 16 35 347 268 198 171 184 164 280 312 305 296 285 315 292 270 289 323 310 321 332 335
129 119 115 122 113 98 142 164 184 163 149 163 151 156 174 174 179 179 179 179 175 183 184 178 191 185 201 161 198 172 165 207 187 163 163 182 154 185 196 203 161 152 58 315 314 328 280 221 187 195 216 249 271 252 230 260 286 295 302 334 338 324 325
72 90 134 150 126 131 163 84 47 62 171 165 156 162 177 179 175 181 191 188 187 183 190 183 187 181 197 173 204 190 158 203 208 172 161 176 156 181 67 334 227 150 153 339 352 314 326 345 320 265 176 188 232 293 341 343 295 288 292 316 316 321 306
111 130 123 136 147 155 167 144 185 137 105 89 188 174 177 177 182 182 193 197 192 190 192 187 185 183 200 180 198 182 174 199 202 178 152 185 189 160 170 213 268 126 119 224 279 295 294 298 333 335 352 359 332 312 286 272 281 287 297 293 284 286 281
141 130 154 125 168 163 138 22 292 146 146 151 122 269 188 183 181 190 193 198 198 194 193 190 186 190 201 192 194 183 190 206 201 185 162 192 207 157 175 192 214 156 152 195 252 280 302 272 256 315 350 335 335 311 298 276 240 239 249 278 272 292 312
357 69 44 70 45 36 20 13 353 349 342 339 288 199 269 213 205 194 198 199 202 199 198 196 193 191 202 197 193 188 190 204 203 192 179 194 208 168 167 176 199 183 163 204 213 247 264 14 0 5 333 334 315 338 354 352 338 332 324 308 304 290 288
52 52 42 61 71 81 106 104 342 316 346 349 357 322 299 241 236 232 200 198 209 211 201 199 201 195 202 202 193 194 189 195 191 194 191 203 179 108 67 170 205 189 142 177 220 335 26 351 9 346 345 345 330 317 314 317 315 304 296 293 304 311 308
73 92 114 123 123 130 146 145 162 232 302 291 251 268 290 293 262 223 221 238 216 208 208 205 205 194 201 208 199 198 186 187 178 181 190 182 163 151 182 235 236 164 172 130 175 208 320 33 29 356 353 347 337 350 340 330 325 317 306 295 289 277 286
107 141 172 168 155 164 171 170 173 179 211 242 269 270 287 307 320 302 255 241 241 200 195 189 221 211 201 209 195 197 182 183 176 170 179 173 185 169 170 188 199 178 193 65 59 59 57 52 24 1 352 350 345 344 339 329 326 315 309 305 298 300 288
130 98 63 134 167 170 183 179 171 175 188 199 210 242 259 269 273 262 242 232 226 214 201 191 201 223 216 210 187 192 184 182 175 170 174 182 182 173 162 177 189 173 99 111 103 104 112 118 66 316 321 3 357 359 346 347 334 332 323 319 314 314 314
158 159 187 182 190 217 171 158 142 187 201 203 200 196 191 192 208 222 231 230 232 202 167 201 207 222 224 205 184 173 161 168 170 176 166 179 190 175 202 176 145 121 135 130 138 122 106 125 171 186 239 271 281 313 340 320 313 305 304 299 297 305 305
116 131 72 183 188 188 186 176 184 199 195 202 204 204 193 203 196 205 215 221 222 210 199 205 205 227 221 196 156 143 164 173 164 163 129 191 176 180 224 221 152 155 141 152 143 161 175 199 210 225 231 220 214 203 246 274 277 281 281 283 287 288 287
114 106 168 11 341 17 5 345 287 216 205 212 210 189 191 199 209 209 220 229 228 193 183 190 208 213 191 164 148 153 147 135 139 177 165 188 153 190 203 214 191 159 177 166 187 183 207 214 224 228 228 233 241 242 224 216 243 265 264 270 275 275 287
140 142 101 36 25 311 280 241 229 269 264 214 191 170 298 305 357 303 261 242 57 60 107 190 173 153 139 135 134 133 137 123 129 124 118 197 161 224 226 197 201 173 197 192 200 204 187 210 230 231 231 242 252 249 249 249 247 247 261 263 266 268 262
119 101 108 183 191 280 307 295 257 227 303 322 250 179 184 247 283 287 285 101 95 95 118 164 145 137 128 123 117 110 124 138 141 140 164 204 191 222 246 175 136 200 161 159 193 208 229 227 207 217 234 242 245 249 248 248 252 254 249 250 260 268 272
141 67 27 290 261 265 252 257 281 262 220 235 250 209 185 204 220 242 258 96 111 106 84 118 120 116 112 107 101 101 87 104 129 167 211 180 187 195 31 15 320 303 303 283 200 84 247 288 341 314 215 227 240 265 282 279 253 237 242 241 246 253 259
150 179 204 182 309 295 293 306 284 239 225 250 278 281 218 193 191 205 120 115 120 120 103 101 110 106 100 94 88 78 65 102 103 85 60 26 355 7 319 251 230 240 252 253 144 141 128 116 326 299 277 267 273 268 263 259 265 271 272 266 247 242 243
154 188 214 237 241 245 267 286 294 273 252 229 237 245 279 266 202 172 119 127 122 114 129 100 89 96 96 102 105 92 88 101 110 127 185 216 222 215 216 215 211 232 237 241 151 149 157 158 201 239 257 273 272 271 266 269 271 271 270 268 268 275 279
204 191 236 254 258 283 302 276 277 273 258 253 251 244 228 268 349 93 121 127 127 120 115 92 96 92 99 88 57 68 43 83 171 203 210 219 245 258 235 223 215 217 224 52 90 55 35 5 274 282 283 280 280 278 279 283 285 279 277 279 296 307 305
216 226 250 248 240 288 278 270 261 261 256 246 252 275 263 212 96 92 95 99 116 125 124 122 118 115 116 92 52 58 40 10 344 281 237 221 209 213 229 224 188 68 76 93 80 71 49 30 359 344 337 324 299 288 290 306 314 325 331 324 312 311 301
227 227 230 226 237 251 273 291 293 272 255 239 245 223 234 166 106 99 96 113 122 119 124 124 113 105 93 86 36 40 28 12 348 316 287 255 249 236 282 71 73 93 88 89 88 83 74 61 33 343 329 305 297 287 318 333 315 308 304 299 294 290 286
223 212 203 203 205 220 236 259 279 283 258 236 243 57 66 91 107 110 120 123 122 128 147 140 122 113 105 108 72 56 20 2 355 343 349 351 1 346 358 79 66 79 81 66 70 66 50 25 350 310 285 268 266 294 320 303 302 300 291 289 284 282 277
258 242 216 219 224 233 241 250 240 244 251 227 121 98 115 112 114 115 91 94 112 127 125 119 122 121 125 113 102 90 46 27 5 328 352 341 335 336 336 99 99 85 90 108 76 181 236 238 234 233 253 252 266 274 273 276 286 285 280 282 286 288 292
253 229 229 222 222 222 222 238 250 249 238 110 111 117 115 129 128 113 101 95 95 99 107 112 128 135 143 120 90 93 109 335 347 357 355 337 333 332 324 71 121 118 112 180 212 224 237 243 247 236 239 248 258 264 270 271 268 270 277 279 283 285 284
246 230 231 232 228 221 223 228 233 307 99 127 126 129 122 131 127 125 125 118 102 106 107 117 126 129 128 137 147 153 166 220 270 42 343 291 301 310 328 16 354 9 1 334 314 309 303 289 279 273 276 276 271 271 267 267 262 262 264 272 273 277 277